星链-3275 (STARLINK-3275 )

导读 | 豆包AI

STARLINK-3275是美国SpaceX公司星链星座的一员,于2021年12月18日发射升空。星链项目旨在搭建覆盖全球的低轨卫星互联网,为偏远及网络欠发达地区提供高速低延迟的宽带服务。该卫星运行在近地轨道,依托星链星座的规模化部署,助力SpaceX实现全球无缝网络覆盖的目标,是星链星座组网建设的重要组成部分。

基本信息
目录编号:
50188
目录名称:
STARLINK-3275
国际标识:
2021-125AJ
轨道中心:
EARTH
卫星名称:
星链-3275
卫星全名:
星链-3275 (STARLINK-3275 )
卫星状态:
已陨落 最后检测时间 2025-08-13
发射日期:
2021-12-18 UTC
国别 :
美国 (US)
星等 :
--
轨道信息
数据来源 国际轨道数据
星历时间: 2025-08-13T17:56:09+0800
轨道信息已过期213天
半长轴: 6530.067km
偏心率: 0.0006473
轨道倾角: 53.172°
近地点辐角 286.255°
升交点赤经 333.972°
平近点角 151.250°
近地点: 147.705km
远地点: 156.159km
周期: 87.526分钟
每日圈数: 16.452289
详细信息
固有亮度:
5
最大亮度:
2.5
卫星平台:
Starlink v1.5
覆盖范围:
全球
运营商:
太空探索技术公司
运营商所在国:
美国
制造商(研发单位):
太空探索技术公司
制造商所在国:
美国
使用方式:
暂无
卫星简介
星链(Starlink)计划是由太空探索技术公司(SpaceX)提出的一个巨型低轨卫星互联网星座项目,计划在2019年至2024年间在太空搭建由约1.2万颗卫星组成的“星链”网络,其中1584颗将部署在地球上空550千米处的近地轨道,并从2020年开始工作。该卫星仍在工作。